User: anonymous   Login
Location: Unspecified
(0.0000°N, 0.0000°E)
Time: 18:53:43
(UTC+00:00)
Language:

OAO 2 - Orbit

View from above orbital plane
View from above orbital plane
View from above satellite
View from above satellite

Ground track
Ground track

The orbit data is extracted from the following two-line orbital elements,

1  3597U 68110A   17145.58357428 +.00000019 +00000-0 +10487-4 0  9994
2  3597 034.9924 154.8386 0005224 057.6579 302.4616 14.45772674554186
Epoch (UTC): 25 May 2017 14:00:20
Eccentricity: 0.0005224
inclination: 34.9924°
perigee height: 736 km
apogee height: 743 km
right ascension of ascending node: 154.8386°
argument of perigee: 57.6579°
revolutions per day: 14.45772674
mean anomaly at epoch: 302.4616°
orbit number at epoch: 55418

The dashed part of the orbit path shows where the satellite is in the earth's shadow,  

DLR